Tekamah, NE

3:57 AM CDT on May 24, 2018 (GMT -0500)
Tekamah

Weather History for KTQE - March, 2014

Change the Weather History Date:

Tuesday, March 25, 2014

  Actual Average Record
Temperature  
Mean Temperature 28 °F -  
Max Temperature 39 °F 53 °F 83 °F (1967)
Min Temperature 19 °F 30 °F 6 °F (1955)
Degree Days  
Heating Degree Days 37    
Moisture  
Dew Point 6 °F    
Average Humidity 44    
Maximum Humidity 78    
Minimum Humidity 17    
Precipitation  
Precipitation 0.00 in - - ()
Sea Level Pressure  
Sea Level Pressure 30.32 in    
Wind  
Wind Speed 13 mph (NW)    
Max Wind Speed 21 mph    
Max Gust Speed 29 mph    
Visibility 10 miles    
Events      
Averages and records for this station are not official NWS values.
T = Trace of Precipitation, MM = Missing Value Source: NWS Daily Summary

Daily Weather History Graph

Daily Weather History Graph

Search for Another Location

Airport or City:

Astronomy

Mar. 25, 2014 Rise Set
Actual Time 7:19 AM CDT 7:42 PM CDT
Civil Twilight 6:51 AM CDT 8:10 PM CDT
Nautical Twilight 6:18 AM CDT 8:43 PM CDT
Astronomical Twilight 5:45 AM CDT 9:16 PM CDT
Moon 3:46 AM CDT (3/25) 2:10 PM CDT (3/25)
Length of Visible Light 13h 18m
Length of Day
12h 23m
Waning Crescent, 32% of the Moon is Illuminated
Mar 25
Waning Crescent
Mar 30
New
Apr 7
First Quarter
Apr 15
Full
Apr 22
Last Quarter

Hourly Weather History & Observations

Time (CDT) Temp. Windchill Dew Point Humidity Pressure Visibility Wind Dir Wind Speed Gust Speed Precip Events Conditions
12:54 AM 28.0 °F 18.6 °F 21.9 °F 78% 30.30 in 10.0 mi NNW 10.4 mph - 0.00 in   Overcast
1:54 AM 26.1 °F 16.2 °F 19.9 °F 78% 30.29 in 10.0 mi WNW 10.4 mph - N/A   Scattered Clouds
2:54 AM 27.0 °F 15.2 °F 19.9 °F 75% 30.31 in 10.0 mi WNW 15.0 mph - N/A   Clear
3:54 AM 24.1 °F 11.5 °F 17.1 °F 75% 30.32 in 10.0 mi NW 15.0 mph - N/A   Clear
4:54 AM 24.1 °F 10.6 °F 16.0 °F 71% 30.34 in 10.0 mi NW 17.3 mph - N/A   Clear
5:54 AM 21.9 °F 8.7 °F 14.0 °F 72% 30.36 in 10.0 mi NW 15.0 mph - N/A   Clear
6:54 AM 19.9 °F 6.7 °F 10.9 °F 68% 30.38 in 10.0 mi NW 13.8 mph - N/A   Clear
7:54 AM 19.9 °F 5.2 °F 10.0 °F 65% 30.41 in 10.0 mi NW 17.3 mph - N/A   Clear
8:54 AM 23.0 °F 9.2 °F 10.9 °F 60% 30.42 in 10.0 mi NNW 17.3 mph - N/A   Clear
9:54 AM 25.0 °F 10.9 °F 9.0 °F 51% 30.44 in 10.0 mi NW 19.6 mph - N/A   Partly Cloudy
10:54 AM 27.0 °F 13.5 °F 6.1 °F 41% 30.45 in 10.0 mi NNW 19.6 mph - N/A   Clear
11:54 AM 30.0 °F 17.2 °F 1.0 °F 29% 30.42 in 10.0 mi NW 20.7 mph 28.8 mph N/A   Clear
12:54 PM 32.0 °F 20.1 °F 1.0 °F 27% 30.39 in 10.0 mi NNW 19.6 mph - N/A   Clear
1:54 PM 34.0 °F 23.8 °F -2.9 °F 21% 30.36 in 10.0 mi NNW 16.1 mph 26.5 mph N/A   Clear
2:54 PM 36.0 °F 28.0 °F -2.9 °F 19% 30.32 in 10.0 mi NW 11.5 mph 24.2 mph N/A   Clear
3:54 PM 37.0 °F 29.8 °F -4.0 °F 17% 30.30 in 10.0 mi WNW 10.4 mph - N/A   Clear
4:54 PM 37.9 °F 33.5 °F -2.9 °F 18% 30.26 in 10.0 mi Variable 5.8 mph 16.1 mph N/A   Clear
5:54 PM 37.9 °F 31.5 °F -2.0 °F 18% 30.24 in 10.0 mi West 9.2 mph - N/A   Clear
6:54 PM 37.0 °F 33.3 °F -2.0 °F 19% 30.23 in 10.0 mi WNW 4.6 mph - N/A   Clear
7:54 PM 34.0 °F 31.0 °F -2.0 °F 22% 30.22 in 10.0 mi North 3.5 mph - N/A   Clear
8:54 PM 28.9 °F 22.8 °F -0.0 °F 29% 30.22 in 10.0 mi East 5.8 mph - N/A   Overcast
9:54 PM 25.0 °F 20.7 °F -2.0 °F 31% 30.21 in 10.0 mi SE 3.5 mph - N/A   Mostly Cloudy
10:54 PM 23.0 °F 15.8 °F -0.9 °F 35% 30.20 in 10.0 mi SE 5.8 mph - N/A   Clear
11:54 PM 19.0 °F 12.3 °F -2.0 °F 40% 30.18 in 10.0 mi SSE 4.6 mph - N/A   Clear